Theta_e
297 297 297 297 297 297 297 297 297 297 297 297 297 297 297 298 298 296 294 297 290 284 285 286 287 283 286 284 281 284 283 285 285 284 284 285 284 286 285 288 287 286 284 282 282 280 278 295 294 288 293 297 297 297
296 296 296 296 296 296 296 296 296 297 297 297 296 297 297 297 297 297 291 297 296 286 285 291 291 291 290 288 285 284 282 283 284 282 284 283 278 280 280 277 285 283 285 281 284 285 294 294 292 293 295 295 295 294
294 294 295 295 295 295 295 295 296 296 296 297 296 296 296 296 297 296 293 294 291 284 284 285 284 289 291 290 291 281 283 285 285 287 282 281 277 281 275 276 280 284 287 282 282 286 287 289 292 293 294 290 290 291
293 294 294 294 294 294 295 295 296 296 296 296 296 296 296 296 296 296 292 294 290 286 279 282 288 287 291 290 288 288 286 287 287 285 280 278 275 282 277 279 276 279 281 279 278 281 285 286 287 289 289 290 289 290
293 293 293 294 294 294 294 294 295 294 295 295 295 296 296 296 296 295 294 294 292 285 279 281 284 286 288 288 287 288 287 284 283 279 278 276 280 278 279 278 275 280 277 275 274 282 282 283 285 284 283 284 285 285
293 293 293 293 294 294 294 295 294 294 294 294 295 295 296 296 295 292 285 293 294 291 282 276 287 285 287 287 286 285 285 285 284 280 279 281 282 278 273 272 278 280 282 282 279 282 282 282 283 283 282 284 284 284
292 293 293 293 293 294 294 294 294 294 294 294 294 295 296 295 293 286 285 289 294 292 282 277 278 284 284 285 285 285 285 283 282 280 279 279 279 279 275 270 277 279 280 281 282 279 278 281 277 277 279 282 284 284
292 292 292 293 293 293 294 294 293 294 293 294 294 295 295 295 293 288 292 294 293 287 284 276 276 277 282 280 278 284 281 282 281 279 280 277 278 277 271 276 277 274 272 274 272 272 271 272 274 276 275 275 275 277
291 292 292 292 293 293 293 293 293 293 293 294 294 294 292 289 285 287 294 294 293 285 278 277 273 271 278 278 280 279 280 274 280 276 276 277 274 270 273 270 269 268 267 267 268 267 268 267 267 268 268 268 269 271
291 291 291 292 292 293 293 292 293 293 293 293 291 285 281 285 291 292 287 283 283 283 282 276 280 274 278 278 276 275 277 273 270 274 277 274 272 277 268 267 266 266 266 266 263 262 262 262 263 264 264 265 266 267
290 290 291 291 292 292 292 292 293 292 291 287 284 281 287 290 286 283 277 275 276 273 277 278 279 276 281 274 274 276 273 274 267 272 271 271 270 270 266 265 265 265 265 264 263 263 263 263 262 261 262 263 263 263
290 290 290 291 291 292 292 292 292 290 287 286 285 287 286 282 279 274 273 270 271 271 275 274 276 276 278 280 275 275 271 272 266 274 269 266 271 263 261 261 261 262 260 259 260 260 260 261 261 260 259 259 260 261
289 290 290 291 291 291 291 291 291 291 290 287 283 279 278 276 271 269 265 268 267 271 272 273 273 276 277 278 275 273 268 267 273 268 266 270 262 260 258 258 258 258 258 258 258 259 259 259 259 259 258 260 260 263
289 290 290 290 291 291 290 291 291 290 286 279 275 271 271 269 271 271 271 272 273 272 272 273 273 274 276 273 273 267 271 270 265 263 265 268 257 256 256 257 255 255 256 256 257 258 257 257 258 259 259 261 263 263
289 289 290 289 290 290 289 290 289 287 282 276 275 268 270 273 269 267 266 268 264 266 269 271 271 272 271 270 270 269 266 264 266 266 263 257 255 254 254 254 254 254 254 256 257 256 257 257 257 257 259 261 261 263
288 289 287 290 290 289 289 288 285 284 279 276 274 270 267 268 269 265 264 263 264 266 267 268 269 268 267 269 267 265 265 264 266 254 255 255 254 253 253 253 254 254 256 256 256 257 257 256 257 257 260 260 259 259
286 284 289 289 287 286 287 284 281 276 274 271 268 262 264 261 259 258 258 260 263 263 267 268 266 266 268 266 265 260 261 253 252 253 254 254 253 253 253 253 255 256 255 256 257 257 257 258 257 258 257 259 259 259
280 285 287 286 285 284 282 281 277 275 270 263 265 258 256 257 257 257 257 259 260 262 262 262 261 262 263 263 265 250 252 253 253 254 254 254 254 254 254 254 256 255 256 256 256 257 257 256 256 256 258 259 259 258
281 283 285 285 285 280 276 274 275 268 261 259 258 258 257 256 257 257 257 258 258 258 258 258 257 256 252 251 250 251 251 252 251 252 253 254 255 254 255 256 256 256 256 256 256 256 256 257 256 256 257 258 257 257
284 283 284 282 282 276 271 269 273 266 261 259 260 257 257 256 256 255 255 255 255 255 253 251 249 250 251 252 253 252 253 254 253 251 252 254 255 255 255 256 255 255 256 257 257 257 256 256 256 256 256 256 256 256
276 276 277 277 271 268 265 264 266 264 261 257 259 258 255 256 254 254 254 255 253 250 250 251 251 252 253 253 254 253 254 254 252 252 252 252 255 255 256 256 255 255 256 256 256 256 256 256 256 256 256 256 256 256
271 274 269 270 268 265 262 262 263 265 261 259 258 258 255 254 253 253 255 252 251 252 252 252 252 252 252 252 254 255 254 254 254 254 255 254 253 254 255 255 254 253 255 256 256 256 256 257 258 257 257 256 256 256
269 268 263 261 261 260 256 262 259 259 258 257 258 255 254 254 254 256 251 252 252 254 254 253 253 254 254 255 255 255 255 254 253 253 253 253 254 256 256 255 254 252 252 256 257 257 256 257 257 257 257 257 256 256
263 256 254 253 254 252 256 253 256 256 256 255 254 252 252 253 256 253 250 251 253 254 253 253 253 253 254 254 253 253 254 254 254 253 253 252 252 254 255 255 254 253 253 256 257 256 256 256 256 256 256 256 255 255
256 248 251 248 251 251 250 249 250 253 251 251 252 252 251 253 251 250 250 251 252 252 253 253 253 253 252 252 254 254 255 254 253 252 252 252 252 254 254 255 255 254 254 253 254 255 254 255 255 254 253 253 253 252
245 245 246 246 247 247 247 247 246 247 248 249 249 250 251 251 249 248 250 252 252 252 252 252 252 252 252 252 251 252 253 254 254 253 252 252 251 251 251 251 251 252 253 253 252 253 253 253 252 251 250 250 251 252
245 244 247 246 247 248 246 246 247 247 245 245 246 248 250 247 247 249 252 253 253 254 254 254 253 252 252 252 253 253 253 253 253 254 254 253 252 251 250 249 248 250 251 251 253 251 250 250 251 251 250 249 247 248
245 245 244 245 245 245 243 243 244 243 245 246 246 246 247 247 248 252 253 254 254 254 255 255 255 254 253 253 253 252 252 253 254 255 256 255 253 252 251 250 251 254 250 250 253 253 250 249 248 248 248 248 247 247
245 244 244 243 243 246 245 245 245 246 247 246 245 247 248 249 251 251 253 254 254 254 254 254 254 253 253 253 253 252 251 251 252 251 250 250 251 252 251 249 249 249 248 247 252 255 255 252 248 246 244 246 246 245
243 240 244 241 242 244 246 246 246 246 247 247 245 247 249 250 252 253 253 252 252 252 253 252 251 249 249 249 250 250 250 248 249 250 248 249 250 251 248 247 247 247 247 245 248 248 252 248 249 246 246 246 246 246
241 242 244 245 245 245 244 240 240 242 243 243 241 244 247 245 247 250 251 252 251 246 247 248 247 247 246 246 245 245 248 247 244 244 244 246 246 246 247 248 248 247 244 244 245 245 246 246 245 243 244 243 242 244
242 240 243 244 245 242 241 242 241 243 242 243 244 240 244 245 246 250 250 248 246 247 249 248 246 250 248 248 246 247 248 249 248 249 247 248 249 249 249 249 248 246 245 247 246 246 245 243 244 245 245 245 245 244
239 238 238 241 243 244 242 240 243 243 242 241 243 239 240 242 245 249 249 248 251 252 252 251 251 250 247 247 248 249 248 248 248 252 254 253 253 252 252 252 251 248 248 247 248 247 246 245 246 245 245 244 245 245
Wind_Speed
24 21 21 22 22 20 21 22 22 22 22 21 20 21 19 20 20 12 8 9 8 7 16 19 22 15 11 7 7 6 7 4 4 6 9 12 11 14 19 29 31 29 14 14 14 21 28 16 18 32 30 25 23 20
25 23 23 21 21 22 22 22 21 23 25 23 22 22 22 21 21 18 10 8 7 9 6 7 12 14 16 17 10 5 8 9 5 5 3 5 6 5 6 7 12 17 14 9 13 9 11 12 12 16 17 15 15 14
26 25 24 23 23 22 24 23 23 23 24 24 24 24 22 23 23 19 10 8 4 5 10 10 13 17 16 18 15 12 9 10 4 6 5 4 8 3 5 9 18 10 6 5 13 11 17 21 19 13 14 15 16 16
25 26 25 25 25 25 25 23 25 25 24 23 25 26 24 22 23 21 10 6 3 3 6 7 1 10 14 14 16 17 17 14 12 6 8 8 9 5 8 9 13 12 16 19 26 29 24 23 26 23 28 20 17 15
23 25 25 25 26 25 27 24 25 24 24 24 24 26 26 24 23 15 9 8 8 6 5 4 1 9 12 13 16 14 13 13 9 9 9 10 9 10 10 14 14 14 19 16 20 25 21 22 20 26 26 27 23 22
24 26 25 24 25 26 25 24 26 24 24 25 25 25 25 24 20 7 5 9 13 9 6 6 3 8 13 15 16 16 13 9 8 7 7 7 14 12 11 15 17 21 22 23 27 27 31 31 30 31 29 26 25 22
25 24 24 25 25 26 25 24 24 25 24 25 24 24 25 24 11 8 3 2 7 6 3 5 5 4 3 7 5 7 9 6 7 7 8 11 12 15 15 19 24 26 26 25 23 19 20 21 17 22 23 24 24 23
25 24 24 24 24 22 23 23 23 24 23 24 23 23 21 20 16 10 11 15 8 3 4 5 3 3 6 4 5 5 5 6 6 7 7 10 11 11 14 21 16 13 16 13 17 16 15 21 22 19 18 19 22 22
24 24 24 24 23 22 23 21 22 23 21 23 22 20 7 5 4 4 11 12 8 6 4 3 3 2 3 5 3 3 4 6 5 9 12 9 9 9 5 6 9 13 12 17 22 19 15 15 22 24 22 25 20 22
24 22 24 23 23 22 24 21 21 21 20 21 6 4 3 4 5 9 3 4 4 3 3 2 4 7 7 5 2 2 3 4 5 6 6 6 13 16 8 8 10 14 15 17 20 19 24 25 19 26 27 23 22 24
25 24 24 23 22 21 22 18 19 17 3 1 6 5 3 7 3 3 5 5 3 3 4 4 7 8 3 5 5 5 3 4 4 5 6 5 7 4 8 9 11 13 15 16 16 20 21 22 26 26 30 24 22 24
24 22 24 22 21 20 18 18 13 4 3 1 4 4 3 4 5 6 4 3 5 5 4 4 3 4 3 3 4 4 4 4 7 1 4 6 1 6 9 14 15 16 17 19 18 22 22 24 23 24 25 27 25 25
22 21 21 20 19 18 15 10 10 7 8 2 4 5 4 3 8 6 7 5 4 5 5 3 3 3 3 5 4 4 6 6 1 4 7 7 5 8 12 13 15 15 18 19 21 20 21 23 22 23 24 23 25 24
19 17 17 17 16 14 10 10 9 9 2 2 2 3 6 6 5 6 4 2 2 0 1 2 3 5 3 4 4 5 6 1 5 9 18 1 8 12 12 13 14 18 17 19 20 20 21 21 21 22 20 20 19 19
13 11 18 6 7 10 9 9 8 2 3 3 2 4 5 2 2 3 3 2 3 3 2 2 3 3 3 4 4 5 4 6 7 12 3 7 13 12 15 16 16 17 17 17 19 19 20 20 20 20 18 16 15 14
10 14 7 13 13 12 11 8 4 1 1 2 4 3 1 1 2 2 2 3 4 3 2 1 4 4 8 5 7 8 6 9 7 3 7 11 13 14 15 16 17 17 18 19 18 19 19 18 17 18 15 10 12 13
4 3 17 15 11 7 8 3 2 3 3 4 2 4 3 4 3 3 3 3 5 3 3 2 6 6 2 4 5 3 4 5 7 9 8 11 14 17 17 17 17 18 18 18 17 16 16 15 15 12 11 10 9 8
2 3 14 12 7 5 2 1 2 4 4 4 1 3 3 4 2 3 3 4 4 3 3 2 3 3 4 5 3 4 4 7 8 9 10 12 14 15 13 17 17 16 16 16 15 14 13 12 12 9 11 11 8 8
6 4 7 9 6 4 3 2 3 3 4 3 5 4 4 4 5 3 3 3 3 2 3 2 1 1 2 2 5 8 8 7 11 11 11 13 12 14 15 15 14 14 15 14 12 9 9 10 8 8 8 7 7 8
19 16 13 14 6 2 3 3 2 5 3 3 3 3 3 4 2 3 5 4 3 2 5 4 2 1 3 7 7 8 8 9 10 11 11 10 10 13 13 12 10 13 10 10 8 10 7 7 7 8 8 9 8 8
8 6 10 6 4 6 5 3 4 4 4 4 4 2 3 2 3 3 3 3 3 3 2 1 3 5 5 7 7 7 8 8 8 8 10 11 10 10 10 9 10 8 7 7 8 8 9 8 7 7 7 8 7 8
3 10 4 8 4 4 5 6 3 3 3 4 3 2 3 2 2 2 1 4 3 1 1 4 5 6 6 7 7 7 8 9 9 8 9 9 7 8 9 8 8 8 8 8 8 8 7 7 7 7 7 7 9 9
7 6 5 8 5 6 3 5 2 5 3 3 2 3 3 2 2 1 3 2 1 1 3 4 6 6 6 6 6 6 6 7 5 6 6 6 6 6 6 8 7 8 8 9 8 7 7 10 9 8 8 8 8 9
11 9 8 7 8 3 2 5 3 3 3 2 2 3 2 1 1 1 2 0 1 2 3 5 5 4 3 4 5 6 7 6 5 4 6 6 6 7 7 7 8 8 8 7 8 8 9 8 10 9 9 10 10 10
9 10 6 7 4 4 5 4 5 3 3 3 2 3 2 2 1 1 1 1 0 2 3 4 3 3 3 3 3 4 5 6 5 6 6 6 6 5 6 6 7 9 9 9 10 9 9 9 9 10 11 10 11 11
11 6 6 5 4 4 3 3 4 3 3 2 2 2 1 1 1 2 2 2 1 0 2 3 3 3 2 3 3 4 5 6 5 3 5 6 6 6 7 8 7 8 10 9 8 9 10 9 9 11 10 11 11 8
7 5 3 1 1 2 3 2 1 2 2 2 2 2 1 2 3 2 2 2 2 1 1 2 1 1 2 3 3 4 5 4 4 3 1 2 4 4 4 5 7 6 8 9 7 7 7 7 7 7 6 5 6 6
3 4 4 4 3 2 3 2 1 1 0 0 1 2 2 3 2 2 1 2 1 1 2 1 1 2 3 3 3 5 5 6 5 3 4 3 3 1 3 3 4 10 6 6 7 4 3 2 3 3 4 4 3 4
4 3 1 4 2 2 1 1 1 1 0 1 1 2 2 2 1 2 2 2 1 2 2 2 2 1 3 3 3 2 2 4 5 4 3 3 3 1 3 4 4 4 4 5 9 10 5 2 2 2 2 2 1 2
3 2 1 1 3 1 0 0 1 2 1 1 2 3 3 3 2 2 3 3 3 4 2 1 1 1 3 2 4 4 2 2 1 1 1 3 3 5 5 5 5 3 3 3 4 5 6 3 3 3 3 3 3 3
1 1 0 0 1 0 1 2 2 2 1 1 0 2 3 4 5 3 5 4 3 2 1 3 3 3 3 3 3 2 4 2 4 6 5 5 6 6 6 5 4 3 1 3 3 3 3 3 2 3 4 4 4 3
2 2 1 1 1 0 1 3 1 1 1 2 2 1 3 2 4 3 2 4 3 3 7 4 3 5 5 4 3 4 6 6 5 6 7 5 6 6 6 5 4 3 3 4 3 2 2 3 4 4 5 7 7 7
1 1 1 1 2 3 3 3 3 4 1 1 1 1 1 2 5 4 1 4 5 5 6 5 5 4 5 6 6 6 7 7 8 11 12 13 14 12 8 6 5 4 5 5 5 5 6 6 7 7 7 8 9 8
Wind_Direction
281 279 275 279 284 283 288 289 284 282 282 280 273 271 272 271 265 260 254 237 229 247 264 273 268 276 276 275 283 15 331 173 273 260 249 243 252 244 243 245 245 232 219 218 235 243 250 224 241 236 247 258 265 269
277 278 277 273 278 282 283 284 286 279 273 275 275 272 270 261 263 252 257 242 238 246 276 289 283 272 253 255 261 245 259 284 287 297 319 327 322 304 2 319 348 261 290 313 290 294 339 16 341 337 351 358 337 349
275 273 274 275 278 278 282 282 282 282 278 273 271 276 271 264 262 257 251 241 215 249 265 232 237 242 237 241 241 248 239 238 262 307 316 293 259 344 296 286 294 277 336 285 323 343 322 309 312 333 12 360 340 328
277 275 270 270 271 274 279 276 281 276 277 276 275 271 271 269 257 254 250 220 198 262 263 259 299 245 244 239 224 225 247 267 281 272 265 270 275 242 274 291 296 283 306 293 289 286 289 298 299 301 301 297 293 289
284 279 274 273 272 275 274 270 272 275 279 278 276 273 264 264 263 259 253 234 195 226 285 272 215 233 235 227 229 221 226 246 246 254 249 256 271 277 264 265 262 272 278 273 282 297 304 302 309 306 305 298 297 295
279 277 275 273 275 275 273 269 273 275 278 278 279 275 265 260 260 255 248 213 202 198 253 247 212 243 249 245 242 235 236 240 238 241 248 236 244 264 268 265 274 278 277 275 279 284 288 289 293 293 290 291 293 295
276 276 277 276 279 277 274 270 271 277 278 281 277 272 266 252 247 218 247 112 173 180 244 235 228 203 248 238 246 243 239 235 225 233 239 257 259 261 265 269 277 270 277 292 296 333 301 302 318 319 307 305 306 303
277 276 275 277 275 275 268 271 277 278 282 280 278 268 261 249 253 246 235 234 166 195 218 274 245 258 170 218 238 195 212 207 216 248 250 251 263 268 268 268 295 348 337 316 337 328 305 297 292 299 311 304 297 292
278 276 274 275 274 271 272 275 276 275 278 280 268 262 248 224 211 221 210 236 197 206 242 214 208 257 138 236 248 211 227 243 242 244 250 260 252 240 349 335 349 349 343 318 317 315 313 317 306 302 305 300 294 290
274 270 271 275 269 267 268 273 277 274 277 280 253 200 195 198 130 122 115 190 209 233 276 228 206 233 197 226 205 234 192 229 230 230 252 233 252 260 66 39 357 338 332 333 325 324 326 310 306 302 296 294 292 291
274 273 268 270 264 269 271 275 268 276 312 238 196 173 75 146 164 187 204 207 157 229 222 238 232 243 160 216 210 221 205 231 236 228 229 236 252 58 9 354 341 331 322 318 304 298 299 296 302 302 299 297 297 291
270 266 266 263 260 266 268 254 248 212 204 310 58 85 133 183 195 211 172 123 212 225 198 217 236 212 205 190 200 183 225 218 241 106 226 251 239 62 358 335 328 330 321 312 308 303 300 297 297 294 292 297 295 290
268 269 266 254 259 259 241 231 210 138 132 125 200 170 182 147 218 208 185 197 222 194 201 195 210 224 188 225 217 217 222 226 110 221 250 267 80 2 340 325 316 317 310 302 302 295 297 298 297 292 294 290 292 289
265 263 261 259 259 240 203 199 187 169 150 221 319 200 202 171 221 201 206 176 131 231 177 222 249 207 186 195 234 227 228 241 238 247 251 343 6 328 321 317 313 315 310 306 303 304 302 301 299 297 294 293 302 300
253 265 262 246 168 157 186 147 126 97 169 205 187 235 214 198 70 25 16 107 29 347 289 209 240 244 206 229 219 244 238 232 236 257 4 347 331 319 317 319 317 312 312 309 311 310 310 307 306 307 306 309 309 310
266 248 224 172 173 164 147 119 66 85 96 177 217 236 139 247 180 117 41 88 15 332 284 283 257 225 222 219 205 216 240 247 275 7 329 321 316 316 312 313 310 307 311 312 312 312 309 311 313 306 312 328 334 344
287 216 156 140 130 133 134 99 122 131 176 191 150 33 31 57 32 48 355 24 338 299 239 249 219 216 342 239 238 23 299 4 336 316 311 309 306 310 311 308 308 312 312 310 311 312 313 316 317 319 331 341 347 5
91 163 135 138 119 99 76 84 122 181 167 33 255 64 66 37 75 64 11 358 322 335 297 309 315 238 244 256 269 21 329 321 303 307 310 306 306 304 305 307 310 310 310 314 314 316 320 325 331 335 339 349 2 8
122 129 141 145 118 109 141 86 333 117 68 94 102 76 75 89 62 41 13 8 18 353 318 330 302 290 336 345 321 320 317 313 310 313 305 305 307 311 311 311 313 313 317 320 327 331 326 335 343 346 350 360 20 13
83 62 50 53 52 90 103 55 340 86 99 89 89 89 71 68 82 36 36 27 25 24 38 35 59 336 291 308 306 299 298 302 305 309 311 315 318 318 316 322 324 319 315 329 337 345 345 355 3 6 15 20 24 27
56 18 21 36 57 55 64 5 74 80 108 88 127 69 87 85 54 34 31 358 60 40 17 325 291 298 297 290 289 288 290 297 297 294 297 304 316 314 327 332 326 320 335 345 347 352 9 12 6 13 21 30 33 39
49 29 55 10 78 68 73 19 24 70 81 113 105 84 80 70 51 44 344 49 60 34 314 305 308 309 307 304 311 318 313 306 295 291 303 312 315 323 343 340 340 340 339 357 355 1 8 11 14 25 34 44 47 53
48 38 56 13 80 43 25 341 67 11 101 102 128 91 70 81 70 193 81 68 78 304 323 308 308 297 294 318 326 340 346 333 335 338 333 326 317 335 349 360 357 352 349 359 360 7 14 15 22 31 36 42 51 55
35 47 35 39 19 59 357 34 17 50 51 60 73 101 82 65 145 76 92 133 27 351 344 343 336 346 352 4 13 8 1 352 359 5 358 348 344 352 359 14 10 8 353 340 6 15 19 23 24 32 37 47 46 49
73 11 15 22 23 31 42 30 12 44 71 31 104 126 89 312 138 96 135 151 12 9 357 345 349 8 1 338 356 3 8 2 4 10 6 2 352 351 9 13 30 23 2 6 10 17 21 21 30 35 38 41 46 47
69 356 31 8 18 40 16 62 39 32 10 72 49 355 309 204 180 200 181 159 153 11 355 357 350 350 24 6 319 332 334 334 330 16 15 14 15 10 2 4 357 5 2 358 358 8 19 21 27 32 35 28 28 41
67 17 22 52 8 106 87 67 55 49 60 60 354 323 249 211 226 188 139 161 180 167 264 295 308 323 325 331 316 317 309 304 283 301 160 65 49 27 15 0 353 331 333 337 357 8 9 10 17 19 27 30 22 14
83 17 56 343 53 12 107 65 55 73 238 210 274 236 228 219 209 124 154 138 197 242 250 240 261 284 293 297 303 321 322 322 288 247 226 216 186 97 25 340 321 336 335 337 334 5 13 18 4 7 24 30 9 8
54 5 299 31 26 50 62 131 202 203 135 175 237 260 265 240 259 231 206 196 205 256 249 251 237 311 284 286 264 278 293 337 5 21 12 348 331 263 22 333 323 328 335 329 335 352 5 25 92 47 9 351 342 322
19 354 68 78 90 11 71 339 332 10 264 298 302 289 254 253 237 208 202 202 212 219 227 246 293 298 289 322 313 314 212 203 237 108 284 288 280 312 311 300 300 301 308 307 325 326 345 18 349 14 4 1 4 349
309 272 105 59 129 92 345 331 278 260 299 274 285 259 279 319 301 229 213 201 179 127 176 243 247 208 224 236 217 265 296 223 216 235 242 260 266 266 269 272 271 267 291 296 302 307 325 326 359 343 328 322 307 296
356 50 78 69 292 220 8 13 344 300 300 268 234 249 289 301 279 270 182 140 146 211 229 211 223 255 207 224 221 242 253 275 269 250 249 251 261 263 268 271 263 238 252 278 277 263 257 280 296 295 303 307 308 307
7 207 256 340 0 7 12 354 12 333 318 301 285 296 275 257 252 288 290 219 219 218 224 217 226 238 227 234 242 254 241 249 257 266 269 262 263 263 267 260 245 226 244 253 258 254 262 262 272 272 270 268 271 270